Regional Weather Roundup
Issued by NWS

Home | Current Version | Previous Version | Text Only | Print | Product List | Glossary Off
Versions: 1 2 3 4 5 6 7 8 9 10 11 12 13 14 15 16 17 18 19 20 21 22 23 24 25 26 27 28 29 30 31 32 33 34 35 36 37 38 39 40 41 42 43 44 45 46 47 48 49 50

000
ASUS43 KDMX 011607
RWRIA

WEATHER ROUNDUP FOR IOWA
NATIONAL WEATHER SERVICE DES MOINES IA
1100 AM CDT WED APR 01 2015

NOTE: "FAIR" INDICATES FEW OR NO CLOUDS BELOW 12,000 FEET WITH NO
SIGNIFICANT WEATHER AND/OR OBSTRUCTIONS TO VISIBILITY.

* - THESE STATIONS ARE NOT NWS STATIONS...THUS NOT UNDER NWS
QUALITY CONTROL.  THEY ALSO DO NOT REPORT WEATHER SUCH
AS PRECIPITATION OR FOG.

IAZ001>003-012>014-020>022-031>034-043>046-011700-
   NORTHWEST IOWA

CITY           SKY/WX    TMP DP  RH WIND       PRES   REMARKS
CARROLL *      SUNNY     73  34  23 S30G41    29.76F
CHEROKEE *     SUNNY     70  36  28 S26G44    29.71S
DENISON *      SUNNY     72  34  25 S24G35    29.74F
LE MARS *      SUNNY     72  41  33 S31G40    29.65F
ORANGE CITY *    N/A     70  34  26 S29G39    29.67F HAZE
SHELDON *      SUNNY     70  37  30 S37G48    29.65F
SIOUX CITY     SUNNY     72  41  32 S26G35    29.70F
SPENCER        SUNNY     73  34  23 S29G39    29.69F
STORM LAKE *   SUNNY     72  34  25 S33G41    29.72F
$$

IAZ055>058-069>071-079>083-090>094-011700-
   SOUTHWEST IOWA

CITY           SKY/WX    TMP DP  RH WIND       PRES   REMARKS
ATLANTIC *     MOSUNNY   72  37  28 S23G29    29.80F
AUDUBON *      SUNNY     72  30  21 S23G30    29.80F
CLARINDA *     SUNNY     72  43  35 S18       29.83F
COUNCIL BLFS * SUNNY     72  37  28 S20G30    29.78F
CRESTON *      SUNNY     70  41  35 S22G33    29.85F
HARLAN  *      SUNNY     72  36  26 S26       29.80F
LAMONI         SUNNY     69  42  37 S18G30    29.87F
RED OAK *      SUNNY     72  41  33 S22G30    29.80S
SHENANDOAH *   SUNNY     73  41  31 S23G33    29.80S
$$

IAZ047>049-059>061-072>074-084-011700-
   CENTRAL IOWA

CITY           SKY/WX    TMP DP  RH WIND       PRES   REMARKS
AMES           SUNNY     71  34  25 S23G32    29.83S
ANKENY *       SUNNY     72  36  26 S21       29.84F
CHARITON *     SUNNY     70  37  30 S29G37    29.87F
DES MOINES     MOSUNNY   72  34  24 S28G39    29.85S
GRINNELL*      SUNNY     72  34  25 S21       29.87F
KNOXVILLE *    SUNNY     72  36  26 S23G31    29.85F
MARSHALLTOWN   SUNNY     71  35  26 S25G32    29.83F
PELLA *        SUNNY     73  41  31 S23       29.88F
PERRY *          N/A     72  37  28 S29G37    29.81F
$$

IAZ004>006-015-016-023>025-035-036-011700-
   NORTH CENTRAL IOWA

CITY           SKY/WX    TMP DP  RH WIND       PRES   REMARKS
ALGONA *       SUNNY     70  36  28 S32G39    29.74F
CLARION *      SUNNY     70  36  28 S28G36    29.78F
ESTHERVILLE    MOSUNNY   70  33  25 S32G44    29.68F
FORT DODGE *   SUNNY     72  37  28 S28G37    29.80F
MASON CITY     SUNNY     68  37  32 S20G28    29.79F
FOREST CITY *  SUNNY     64  36  34 S25G31    29.77F
IOWA FALLS *     N/A     70  36  28 S24G31    29.82S
$$

IAZ007>011-017>019-026>030-037>042-050>054-066-011700-
   NORTHEAST IOWA

CITY           SKY/WX    TMP DP  RH WIND       PRES   REMARKS
CEDAR RAPIDS   SUNNY     69  37  30 S20G25    29.90F
CHARLES CITY * SUNNY     66  37  34 S21       29.82F
CLINTON *      SUNNY     66  37  34 S10       29.98F
DECORAH *      SUNNY     63  37  39 S12G21    29.85F
DUBUQUE        SUNNY     65  34  31 S18       29.93F
MONTICELLO *   SUNNY     68  36  30 S15G21    29.92F
OELWEIN *      SUNNY     66  37  34 S17G24    29.88F
WATERLOO       SUNNY     69  35  28 S24       29.84F
$$

IAZ064-065-067-068-078-011700-
   EAST CENTRAL IOWA

CITY           SKY/WX    TMP DP  RH WIND       PRES   REMARKS
DAVENPORT      SUNNY     70  34  26 S17       29.95F
IOWA CITY      SUNNY     69  36  29 S16G24    29.94F
MT. PLEASANT * SUNNY     70  36  28 S18G28    29.94F
MUSCATINE *    SUNNY     72  36  26 S15       29.93F
QUAD CITIES    SUNNY     71  32  23 S15G24    29.94F
$$

IAZ062-063-075>077-085>089-095>099-011700-
   SOUTHEAST IOWA

CITY           SKY/WX    TMP DP  RH WIND       PRES   REMARKS
BURLINGTON     SUNNY     71  37  28 S20G25    29.95S
FAIRFIELD *    SUNNY     72  32  23 S24       29.91F
FORT MADISON * SUNNY     70  37  30 S16       29.96S
KEOKUK *       SUNNY     70  36  28 S18G26    29.95F
OSKALOOSA *      N/A     73  34  23 S23G30    29.90S
CENTERVILLE *  SUNNY     72  36  26 S25G31    29.93S
OTTUMWA        SUNNY     73  35  25 S22G31    29.90S
WASHINGTON *   SUNNY     72  36  26 S21G26    29.91F
$$

ABBREVIATIONS USED IN REMARKS
   TC - TEMPERATURES IN CELSIUS
  WCI - WIND CHILL INDEX
   HX - HEAT INDEX
  VSB - VISIBILITY
$$



USA.gov is the U.S. government's official web portal to all federal, state and local government web resources and services.